• MPC Preparation (Info)

  • MPEC 2023-R124 : 2023 RY3

    The following Minor Planet Electronic Circular may be linked-to from your own Web pages, but must not otherwise be redistributed electronically.

    A form allowing access to any MPEC is at the bottom of this page.


    Read MPEC 2023-R123 Read MPEC 2023-R125


    M.P.E.C. 2023-R124                           Issued 2023 September 11, 10:54 UT
    
         The Minor Planet Electronic Circulars contain information on unusual
             minor planets, routine data on comets and natural satellites,
             and occasional editorial announcements.  They are published
        on behalf of Division F of the International Astronomical Union by the
              Minor Planet Center, Smithsonian Astrophysical Observatory,
                              Cambridge, MA 02138, U.S.A.
    			  
                 Prepared using the Tamkin Foundation Computer Network
    
                                  MPC@CFA.HARVARD.EDU
                URL https://www.minorplanetcenter.net/    ISSN 1523-6714
    
                                    2023 RY3                                 
    
    
    Observations:
         K23R03Y*2C2023 09 09.09250701 01 52.91 +10 13 00.9          21.3 GVER124Z84
         K23R03Y 2C2023 09 09.11089501 01 53.01 +10 11 23.8          21.3 GVER124Z84
         K23R03Y 2C2023 09 09.12929201 01 53.10 +10 09 47.0          21.5 GVER124Z84
         K23R03Y 2C2023 09 09.87957601 02 09.09 +09 03 08.8          20.6 GVER124Z84
         K23R03Y 2C2023 09 09.88876901 02 09.19 +09 02 19.7          21.0 GVER124Z84
         K23R03Y 2C2023 09 09.89757801 02 09.30 +09 01 32.9          20.8 GVER124Z84
         K23R03Y 2C2023 09 09.96444301 02 09.80 +08 55 33.9          21.4 GVER124Z84
         K23R03Y 2C2023 09 09.97670501 02 09.86 +08 54 28.1          20.8 GVER124Z84
         K23R03Y 2C2023 09 09.98896401 02 09.90 +08 53 22.3          20.9 GVER124Z84
         K23R03Y 1C2023 09 10.05531 01 02 09.53 +08 47 17.0          20.6 VXER124033
         K23R03Y 1C2023 09 10.05745 01 02 09.53 +08 47 04.9          20.7 VXER124033
         K23R03Y 1C2023 09 10.05959 01 02 09.54 +08 46 53.5          20.8 VXER124033
         K23R03Y 1C2023 09 10.06176 01 02 09.54 +08 46 41.6          20.6 VXER124033
         K23R03Y -C2023 09 10.59897 01 02 18.55 +07 58 51.5          20.1 RVER124E10
         K23R03Y -C2023 09 10.62129 01 02 18.49 +07 56 48.7          20.5 RVER124E10
         K23R03Y 1C2023 09 10.99524 01 02 23.29 +07 21 30.2          20.7 VXER124033
         K23R03Y 1C2023 09 10.99668 01 02 23.30 +07 21 22.1          20.7 VXER124033
         K23R03Y 1C2023 09 10.99813 01 02 23.31 +07 21 14.3          20.3 VXER124033
         K23R03Y IC2023 09 11.06091501 02 23.21 +07 15 29.4          20.9 GVER124L01
         K23R03Y pC2023 09 11.06678001 02 23.24 +07 14 57.5          20.7 GVER124L01
         K23R03Y KC2023 09 11.07134101 02 23.27 +07 14 31.2          20.9 GVER124L01
         K23R03Y 1C2023 09 11.13974 01 02 23.43 +07 08 07.4          21.5 VXER124033
         K23R03Y 1C2023 09 11.14118 01 02 23.44 +07 07 59.5          21.5 VXER124033
         K23R03Y 1C2023 09 11.14262 01 02 23.44 +07 07 51.3          21.4 VXER124033
    
    Observer details:
    033 Karl Schwarzschild Observatory, Tautenburg.  Observers S. Melnikov, C.
        Hoegner, F. Ludwig, M. Hartmann, B. Stecklum.  Measurer B. Stecklum.
        1.34-m f/3 Schmidt + CCD.
    E10 Siding Spring-Faulkes Telescope South.  Observer P. Breitenstein.  2.0-m
        Ritchey-Chretien + CCD.
    L01 Visnjan Observatory, Tican.  Observer K. Korlevic.  1.0-m f/2.9 reflector
        + CCD.
    Z84 Calar Alto-Schmidt.  Observer E. Schwab.  0.8-m f/3 Schmidt + CCD.
    
    Orbital elements:
    2023 RY3                                                 Earth MOID = 0.0647 AU
    Epoch 2023 Sept. 13.0 TT = JDT 2460200.5                Veres                   
    M 172.97121              (2000.0)            P               Q                  
    n   0.82728898     Peri.    7.42762     -0.99906710     +0.01144450             
    a   1.1238229      Node   172.82228     -0.01441163     -0.99732443             
    e   0.0569263      Incl.   19.46713     +0.04070913     -0.07220112             
    P   1.19           H   22.98          G   0.15           U   9                  
    Residuals in seconds of arc
    230909 Z84  0.2-  0.1+    230909 Z84  0.1+  0.2+    230910 033  0.0   0.1-
    230909 Z84  0.0   0.2-    230910 033  0.4+  0.9+    230910 033  0.2+  0.1+
    230909 Z84  0.1+  0.0     230910 033  0.3+  0.3+    230911 L01  0.5-  0.1+
    230909 Z84  0.3+  0.2+    230910 033  0.3+  0.5+    230911 L01  0.0   0.7+
    230909 Z84  0.2+  0.3+    230910 033  0.1+  0.3+    230911 L01  0.5+  0.2-
    230909 Z84  0.4+  0.6+    230910 E10  0.1+  0.0     230911 033  0.2-  0.2-
    230909 Z84  0.3+  0.0     230910 E10  0.4-  0.5-    230911 033  0.1-  0.1-
    230909 Z84  0.3+  0.1+    230910 033  0.1-  0.0     230911 033  0.2-  0.2-
    
    Ephemeris:
    2023 RY3                 a,e,i = 1.12, 0.06, 19                  q = 1.0598
    Date    TT    R. A. (2000) Decl.     Delta      r    Elong.  Phase     V
    2023 08 12    00 33 19.6 +34 20 00   0.3221  1.1782   113.2    52.3    22.8
    ...
    2023 08 27    00 53 03.2 +25 23 23   0.2522  1.1839   128.5    41.9    22.0
    ...
    2023 09 04    00 59 32.3 +17 04 26   0.2215  1.1860   139.6    33.5    21.5
    ...
    2023 09 10    01 02 08.8 +08 52 48   0.2044  1.1870   148.9    26.0    21.1
    2023 09 11    01 02 22.8 +07 21 38   0.2022  1.1871   150.5    24.7    21.0
    2023 09 12    01 02 33.5 +05 48 11   0.2002  1.1873   152.0    23.4    21.0
    ...
    2023 09 18    01 02 27.4 -04 08 12   0.1931  1.1877   159.3    17.4    20.7
    ...
    2023 09 26    00 59 38.9 -17 33 31   0.1973  1.1877   157.6    18.7    20.8
    ...
    2023 10 11    00 50 08.1 -36 15 20   0.2403  1.1855   136.9    35.1    21.7
    
    M. P. C. Staff               (C) Copyright 2023 MPC           M.P.E.C. 2023-R124
    


    Read MPEC 2023-R123 Read MPEC 2023-R125


    MPEC number:

    Enter an MPEC number in one of the following forms:

    • 1997-B01 (the full form)
    • J97B01 (the packed version of the full form)
    • B01 (the abbreviated form)